Location: Red Deer
(52.2681°N, 113.8112°W)
Time: 01:30:09
(UTC-07:00)

BlueWalker 3 - Pass Details

Date: 06 December 2022
Orbit: 499 x 517 km, 53.2° (Epoch: 29 January)

Event Time Altitude Azimuth Distance (km) Brightness Sun altitude
Rises 18:52:16 0° 287° (WNW) 2,630 6.7 -21.5°
Reaches altitude 10° 18:54:30 10° 283° (WNW) 1,737 5.6 -21.9°
Maximum altitude 18:58:20 55° 206° (SSW) 615 2.4 -22.5°
Enters shadow 18:58:44 52° 179° (S) 637 2.4 -22.5°
